Location: Chiroubles
(46.1812°N, 4.6660°E)
Time: 17:10:20
(UTC+00:00)

Explorer 7 - All Passes

Search period start: 04 December 2020 00:00
Search period end: 14 December 2020 00:00
Orbit: 484 x 678 km, 50.3° (Epoch: 03 December)

Date Brightness Start Highest point End Pass type
(mag) Time Alt. Az. Time Alt. Az. Time Alt. Az.
04 Dec - 01:39:01 10° W 01:43:34 54° N 01:47:50 10° ENE night (unlit)
04 Dec - 03:20:11 10° WNW 03:24:34 54° N 03:28:40 10° E visible
04 Dec - 05:00:57 10° WNW 05:05:12 61° SSW 05:09:09 10° SE visible
04 Dec - 06:43:11 10° WSW 06:44:56 12° SW 06:46:40 10° SSW daylight
04 Dec - 22:23:14 10° SSW 22:27:12 26° SE 22:31:02 10° E night (unlit)
05 Dec - 00:02:41 10° WSW 00:07:27 89° SSE 00:11:58 10° ENE night (unlit)
05 Dec - 01:43:48 10° W 01:48:18 50° N 01:52:32 10° ENE night (unlit)
05 Dec - 03:24:51 10° WNW 03:29:18 64° NNE 03:33:25 10° E visible
05 Dec - 05:05:41 10° WNW 05:09:43 41° SW 05:13:30 10° SE visible
05 Dec - 22:27:13 10° SSW 22:31:40 37° SE 22:35:56 10° ENE night (unlit)
06 Dec - 00:07:21 10° WSW 00:12:06 73° NNW 00:16:36 10° ENE night (unlit)
06 Dec - 01:48:35 10° WNW 01:53:04 49° N 01:57:16 10° ENE night (unlit)
06 Dec - 03:29:31 10° WNW 03:33:58 80° NNE 03:38:07 10° ESE visible
06 Dec - 05:10:31 10° W 05:14:09 27° SW 05:17:37 10° SSE visible
06 Dec - 20:54:07 10° SSE 20:56:17 13° SE 20:58:26 10° ESE night (unlit)
06 Dec - 22:31:28 10° SW 22:36:10 53° SSE 22:40:41 10° ENE night (unlit)
07 Dec - 00:12:05 10° W 00:16:48 61° NNW 00:21:15 10° ENE night (unlit)
07 Dec - 01:53:19 10° WNW 01:57:49 51° N 02:02:02 10° E night (unlit)
07 Dec - 03:34:09 10° WNW 03:38:36 78° SSW 03:42:44 10° ESE visible
07 Dec - 05:15:36 10° W 05:18:32 18° SW 05:21:21 10° S visible
07 Dec - 20:57:08 10° S 21:00:38 20° SE 21:04:04 10° E night (unlit)
07 Dec - 22:35:54 10° SW 22:40:43 74° SSE 22:45:21 10° ENE night (unlit)
08 Dec - 00:16:52 10° W 00:21:31 53° N 00:25:55 10° ENE night (unlit)
08 Dec - 01:58:00 10° WNW 02:02:33 57° NNE 02:06:48 10° E night (unlit)
08 Dec - 03:38:49 10° WNW 03:43:10 56° SSW 03:47:13 10° SE visible
08 Dec - 05:21:25 10° WSW 05:22:50 11° SW 05:24:14 10° SSW visible
08 Dec - 21:00:50 10° SSW 21:05:02 29° SE 21:09:08 10° E night (unlit)
08 Dec - 22:40:29 10° WSW 22:45:21 86° NNW 22:50:00 10° ENE night (unlit)
09 Dec - 00:21:38 10° W 00:26:15 50° N 00:30:38 10° ENE night (unlit)
09 Dec - 02:02:40 10° WNW 02:07:15 68° NNE 02:11:32 10° ESE night (unlit)
09 Dec - 03:43:33 10° WNW 03:47:39 38° SW 03:51:30 10° SSE visible
09 Dec - 21:04:54 10° SSW 21:09:29 42° SE 21:13:58 10° ENE night (unlit)
09 Dec - 22:45:10 10° WSW 22:49:59 69° NNW 22:54:37 10° ENE night (unlit)
10 Dec - 00:26:24 10° WNW 00:31:01 50° N 00:35:22 10° ENE night (unlit)
10 Dec - 02:07:18 10° WNW 02:11:55 85° NNE 02:16:12 10° ESE night (unlit)
10 Dec - 03:48:25 10° W 03:52:04 26° SW 03:55:31 10° SSE visible
10 Dec - 19:31:20 10° SSE 19:34:04 15° SE 19:36:47 10° E night (unlit)
10 Dec - 21:09:11 10° SW 21:14:00 59° SSE 21:18:40 10° ENE night (unlit)
10 Dec - 22:49:54 10° W 22:54:41 59° NNW 22:59:16 10° ENE night (unlit)
11 Dec - 00:31:07 10° WNW 00:35:45 53° N 00:40:08 10° E night (unlit)
11 Dec - 02:11:57 10° WNW 02:16:31 72° SSW 02:20:47 10° SE night (unlit)
11 Dec - 03:53:34 10° W 03:56:25 17° SW 03:59:09 10° S night (unlit)
11 Dec - 19:34:38 10° S 19:38:24 22° SE 19:42:09 10° E night (unlit)
11 Dec - 21:13:40 10° WSW 21:18:33 80° SSE 21:23:19 10° ENE night (unlit)
11 Dec - 22:54:40 10° W 22:59:25 53° N 23:03:56 10° ENE night (unlit)
12 Dec - 00:35:47 10° WNW 00:40:28 60° NNE 00:44:53 10° E night (unlit)
12 Dec - 02:16:37 10° WNW 02:21:03 51° SSW 02:25:12 10° SE night (unlit)
12 Dec - 03:59:47 10° WSW 04:00:41 11° SW 04:01:35 10° SW night (unlit)
12 Dec - 19:38:27 10° SSW 19:42:48 33° SE 19:47:06 10° ENE visible
12 Dec - 21:18:16 10° WSW 21:23:11 81° NNW 21:27:56 10° ENE night (unlit)
12 Dec - 22:59:26 10° WNW 23:04:09 51° N 23:08:39 10° ENE night (unlit)
13 Dec - 00:40:26 10° WNW 00:45:10 73° NNE 00:49:35 10° ESE night (unlit)
13 Dec - 02:21:22 10° WNW 02:25:31 35° SW 02:29:25 10° SSE night (unlit)
13 Dec - 18:06:28 10° SE 18:07:32 11° SE 18:08:36 10° ESE visible
13 Dec - 19:42:34 10° SW 19:47:16 46° SE 19:51:54 10° ENE visible
13 Dec - 21:22:57 10° W 21:27:50 67° NNW 21:32:33 10° ENE night (unlit)
13 Dec - 23:04:11 10° WNW 23:08:53 51° N 23:13:23 10° E night (unlit)
